Location: Slave Lake
(55.2830°N, 114.7830°W)
Time: 15:00:53
(UTC-06:00)

Amateur Radio Satellites - All Passes

Search period start: 01 September 2014 14:30
Search period end: 02 September 2014 14:30
Location: Slave Lake, 55.2830°N, 114.7830°W

Satellite Date Start Highest point End Downlink Frequencies (MHz)
Time Altitude Azimuth
UOSAT-12 01 Sep 14:31:06 14:35:40 47° 233° (SW) 14:40:10 437.025 FM, 437.400 FM
FUNcube-1 01 Sep 14:37:12 14:38:42 12° 312° (NW) 14:40:13 145.950 - 145.970 MHz USB
Oscar 16 01 Sep 14:47:44 14:52:40 45° 262° (W) 14:57:40 437.025 USB, Beacon 2401.1428
ITAMSAT 1 01 Sep 14:48:45 14:53:56 83° 254° (WSW) 14:59:09 435.822 SSB
RS-15 01 Sep 14:51:25 15:02:17 61° 23° (NNE) 15:13:26 29.354 - 29.394 USB, Beacon 29.352 USB
ISS 01 Sep 14:58:05 15:01:14 40° 190° (S) 15:04:23 145.800 FM
Uribyol 2 01 Sep 14:58:18 15:03:26 68° 256° (WSW) 15:08:37 436.500 FM
TMSAT-1 01 Sep 15:07:51 15:13:02 59° 67° (ENE) 15:18:16 436.925 FM
Uosat F 01 Sep 15:18:15 15:22:05 23° 53° (NE) 15:25:56 435.120 FM
AO-27 01 Sep 15:18:37 15:23:39 50° 260° (W) 15:28:43 436.795 MHz FM
HO-68 01 Sep 15:30:27 15:32:13 11° 344° (NNW) 15:33:58 435.675 MHz FM
AO-7 01 Sep 15:38:21 15:46:21 54° 55° (NE) 15:54:21 29.400 - 29.500 MHz
JAS-1B 01 Sep 15:41:46 15:51:04 55° 261° (W) 15:59:12 435.800 - 435.900 CW/SSB
Oscar 19 01 Sep 15:54:14 15:57:26 16° 275° (W) 16:00:40 437.125 CW, 437.150 USB
Gurwin Techsat 1B 01 Sep 15:57:35 16:02:45 51° 260° (W) 16:07:57 435.225 FM
AO-Echo 01 Sep 16:05:13 16:08:58 21° 270° (W) 16:12:40 ?
MaSat-1 01 Sep 16:05:28 16:10:12 36° 323° (NW) 16:14:54 437.345 MHz
ITAMSAT 1 01 Sep 16:31:04 16:34:16 16° 274° (W) 16:37:29 435.822 SSB
ISS 01 Sep 16:35:01 16:37:26 19° 209° (SSW) 16:39:52 145.800 FM
OPAL 01 Sep 16:41:23 16:42:05 10° 83° (E) 16:42:47 ?
Uribyol 2 01 Sep 16:41:33 16:43:56 13° 277° (W) 16:46:21 436.500 FM
Hamsat 01 Sep 16:44:50 16:47:08 14° 51° (NE) 16:49:27 145.90 MHz
TMSAT-1 01 Sep 16:48:47 16:53:20 29° 268° (W) 16:57:56 436.925 FM
Uosat F 01 Sep 16:55:22 17:00:23 82° 253° (WSW) 17:05:26 435.120 FM
Sapphire 01 Sep 17:03:59 17:08:06 23° 110° (ESE) 17:12:15 437.095 MHz 1200 baud AX-25 AFSK
RS-15 01 Sep 17:04:18 17:15:13 73° 232° (SW) 17:26:31 29.354 - 29.394 USB, Beacon 29.352 USB
HO-68 01 Sep 17:16:07 17:16:54 10° 11° (NNE) 17:17:41 435.675 MHz FM
JAS-2 01 Sep 17:26:54 17:32:00 35° 60° (ENE) 17:36:47 435.800 - 435.900 CW/SSB, 435.910 FM
AO-7 01 Sep 17:31:09 17:39:15 53° 258° (WSW) 17:47:24 29.400 - 29.500 MHz
PCSat 01 Sep 17:32:10 17:37:04 36° 117° (ESE) 17:42:01 145.825 MHz
JAS-1B 01 Sep 17:38:11 17:43:21 16° 283° (WNW) 17:48:12 435.800 - 435.900 CW/SSB
MaSat-1 01 Sep 17:45:06 17:48:36 18° 346° (NNW) 17:52:00 437.345 MHz
OPAL 01 Sep 18:17:02 18:22:10 53° 103° (ESE) 18:27:16 ?
Hamsat 01 Sep 18:18:03 18:22:23 71° 72° (ENE) 18:26:46 145.90 MHz
Uosat F 01 Sep 18:37:01 18:40:00 16° 274° (W) 18:43:00 435.120 FM
Sapphire 01 Sep 18:45:30 18:50:56 89° 311° (NW) 18:56:25 437.095 MHz 1200 baud AX-25 AFSK
HO-68 01 Sep 18:57:09 19:02:03 20° 37° (NE) 19:06:57 435.675 MHz FM
JAS-2 01 Sep 19:11:26 19:17:05 51° 260° (W) 19:22:17 435.800 - 435.900 CW/SSB, 435.910 FM
PCSat 01 Sep 19:14:56 19:20:19 62° 319° (NW) 19:25:44 145.825 MHz
RS-15 01 Sep 19:17:24 19:25:44 26° 258° (WSW) 19:34:18 29.354 - 29.394 USB, Beacon 29.352 USB
SO-67 01 Sep 19:19:11 19:22:32 47° 70° (ENE) 19:25:54 435.3500 MHz FM
MaSat-1 01 Sep 19:24:11 19:27:26 17° 10° (N) 19:30:33 437.345 MHz
AO-7 01 Sep 19:30:12 19:34:11 14° 282° (WNW) 19:38:11 29.400 - 29.500 MHz
Hamsat 01 Sep 19:55:46 19:58:50 19° 272° (W) 20:01:57 145.90 MHz
OPAL 01 Sep 19:56:12 20:00:55 35° 304° (NW) 20:05:36 ?
STRAND 1 01 Sep 20:04:20 20:09:04 37° 96° (E) 20:13:47 ?
UKube-1 01 Sep 20:16:33 20:19:06 16° 51° (NE) 20:21:40 145.840 MHz, 145.915 MHz
Oscar 11 01 Sep 20:21:26 20:23:04 12° 48° (NE) 20:24:41 145.825 FM, Beacon 2401.500 USB
Sapphire 01 Sep 20:30:07 20:35:01 33° 335° (NNW) 20:39:57 437.095 MHz 1200 baud AX-25 AFSK
HO-68 01 Sep 20:41:32 20:48:27 57° 60° (ENE) 20:55:25 435.675 MHz FM
SO-67 01 Sep 20:53:20 20:55:50 19° 269° (W) 20:58:22 435.3500 MHz FM
FUNcube-1 01 Sep 20:53:59 20:54:50 11° 46° (NE) 20:55:42 145.950 - 145.970 MHz USB
PCSat 01 Sep 21:00:06 21:04:44 28° 343° (NNW) 21:09:24 145.825 MHz
MaSat-1 01 Sep 21:01:32 21:05:57 31° 34° (NE) 21:09:57 437.345 MHz
OPAL 01 Sep 21:37:18 21:38:27 11° 326° (NW) 21:39:36 ?
STRAND 1 01 Sep 21:43:33 21:48:24 45° 297° (WNW) 21:53:14 ?
UKube-1 01 Sep 21:50:19 21:54:40 78° 72° (ENE) 21:59:02 145.840 MHz, 145.915 MHz
Oscar 11 01 Sep 21:54:08 21:58:23 56° 69° (ENE) 22:02:41 145.825 FM, Beacon 2401.500 USB
Sapphire 01 Sep 22:15:36 22:19:58 24° 1° (N) 22:24:20 437.095 MHz 1200 baud AX-25 AFSK
Saudisat 1A 01 Sep 22:25:31 22:27:40 13° 112° (ESE) 22:29:48 436.775 MHz
FUNcube-1 01 Sep 22:26:11 22:30:16 49° 67° (ENE) 22:34:29 145.950 - 145.970 MHz USB
HO-68 01 Sep 22:29:41 22:36:25 43° 262° (W) 22:43:13 435.675 MHz FM
MaSat-1 01 Sep 22:38:36 22:43:26 71° 238° (WSW) 22:47:39 437.345 MHz
PCSat 01 Sep 22:45:19 22:49:47 25° 9° (N) 22:54:14 145.825 MHz
KITSAT 1 01 Sep 23:23:17 23:29:48 28° 108° (ESE) 23:36:20 435.175 FM
STRAND 1 01 Sep 23:24:34 23:26:28 12° 318° (NW) 23:28:21 ?
UKube-1 01 Sep 23:28:35 23:31:26 17° 271° (W) 23:34:18 145.840 MHz, 145.915 MHz
Oscar 11 01 Sep 23:31:25 23:34:55 23° 269° (W) 23:38:26 145.825 FM, Beacon 2401.500 USB
Sapphire 01 Sep 23:59:55 00:04:53 34° 26° (NNE) 00:09:50 437.095 MHz 1200 baud AX-25 AFSK
Saudisat 1A 02 Sep 00:02:05 00:06:28 65° 132° (SE) 00:10:52 436.775 MHz
FUNcube-1 02 Sep 00:03:24 00:06:57 25° 268° (W) 00:10:34 145.950 - 145.970 MHz USB
MaSat-1 02 Sep 00:17:20 00:19:26 13° 260° (W) 00:21:24 437.345 MHz
PCSat 02 Sep 00:29:15 00:34:29 44° 34° (NE) 00:39:41 145.825 MHz
AO-40 02 Sep 00:35:57 02:57:18 17° 135° (SE) 04:10:48 Beacon 2401.320
Oscar 10/S400 02 Sep 01:03:56 01:44:10 39° 195° (SSW) 07:29:11 145.825 - 145.975 CW/USB, Beacon 145.810 USB
KITSAT 1 02 Sep 01:16:08 01:24:15 84° 131° (SE) 01:32:23 435.175 FM
Saudisat 1A 02 Sep 01:42:11 01:46:20 38° 334° (NNW) 01:50:30 436.775 MHz
Sapphire 02 Sep 01:43:27 01:48:56 87° 229° (SW) 01:54:22 437.095 MHz 1200 baud AX-25 AFSK
PCSat 02 Sep 02:12:47 02:18:08 57° 236° (WSW) 02:23:26 145.825 MHz
Oscar 19 02 Sep 02:16:48 02:20:49 22° 89° (E) 02:24:47 437.125 CW, 437.150 USB
OPAL 02 Sep 02:25:57 02:28:02 13° 38° (NE) 02:30:08 ?
AO-Echo 02 Sep 02:26:10 02:28:13 13° 84° (E) 02:30:15 ?
Oscar 16 02 Sep 02:51:40 02:56:35 39° 97° (E) 03:01:26 437.025 USB, Beacon 2401.1428
ITAMSAT 1 02 Sep 02:54:46 02:58:42 21° 89° (E) 03:02:37 435.822 SSB
Uribyol 2 02 Sep 03:03:52 03:08:12 26° 92° (E) 03:12:31 436.500 FM
KITSAT 1 02 Sep 03:12:36 03:20:24 48° 337° (NNW) 03:28:12 435.175 FM
TMSAT-1 02 Sep 03:17:38 03:20:17 14° 83° (E) 03:22:55 436.925 FM
JAS-1B 02 Sep 03:20:20 03:26:39 34° 90° (E) 03:32:09 435.800 - 435.900 CW/SSB
Saudisat 1A 02 Sep 03:23:16 03:26:57 25° 358° (N) 03:30:37 436.775 MHz
AO-27 02 Sep 03:24:04 03:28:49 35° 95° (E) 03:33:32 436.795 MHz FM
Sapphire 02 Sep 03:27:41 03:31:42 21° 250° (WSW) 03:35:43 437.095 MHz 1200 baud AX-25 AFSK
Oscar 19 02 Sep 03:55:31 04:00:45 76° 289° (WNW) 04:05:56 437.125 CW, 437.150 USB
PCSat 02 Sep 03:58:13 04:00:28 13° 257° (WSW) 04:02:42 145.825 MHz
OPAL 02 Sep 04:00:56 04:05:44 42° 59° (ENE) 04:10:37 ?
AO-Echo 02 Sep 04:03:11 04:07:54 73° 104° (ESE) 04:12:37 ?
Gurwin Techsat 1B 02 Sep 04:06:08 04:11:07 39° 96° (E) 04:16:04 435.225 FM
Oscar 16 02 Sep 04:31:06 04:36:01 43° 297° (WNW) 04:40:55 437.025 USB, Beacon 2401.1428
ITAMSAT 1 02 Sep 04:33:37 04:38:49 78° 289° (WNW) 04:44:00 435.822 SSB
Uribyol 2 02 Sep 04:42:58 04:48:07 65° 292° (WNW) 04:53:16 436.500 FM
SO-50 02 Sep 04:43:11 04:47:32 48° 128° (SE) 04:52:00 436.795 FM
TMSAT-1 02 Sep 04:55:55 05:01:14 69° 103° (ESE) 05:06:31 436.925 FM
Uosat F 02 Sep 04:56:28 04:59:57 19° 88° (E) 05:03:25 435.120 FM
AO-27 02 Sep 05:03:32 05:08:31 48° 296° (WNW) 05:13:30 436.795 MHz FM
Saudisat 1A 02 Sep 05:03:33 05:07:37 34° 22° (NNE) 05:11:40 436.775 MHz
KITSAT 1 02 Sep 05:10:05 05:17:37 40° 6° (N) 05:25:08 435.175 FM
JAS-1B 02 Sep 05:10:50 05:17:53 60° 297° (WNW) 05:23:52 435.800 - 435.900 CW/SSB
AO-7 02 Sep 05:24:00 05:31:35 37° 95° (E) 05:39:05 29.400 - 29.500 MHz
Oscar 19 02 Sep 05:35:49 05:39:22 19° 310° (NW) 05:42:54 437.125 CW, 437.150 USB
OPAL 02 Sep 05:39:50 05:44:40 41° 260° (W) 05:49:35 ?
AO-Echo 02 Sep 05:42:40 05:46:17 22° 305° (NW) 05:49:54 ?
Gurwin Techsat 1B 02 Sep 05:46:09 05:51:12 45° 297° (WNW) 05:56:14 435.225 FM
STRAND 1 02 Sep 05:49:57 05:53:58 24° 54° (NE) 05:57:59 ?
Oscar 16 02 Sep 06:12:20 06:14:11 12° 319° (NW) 06:16:03 437.025 USB, Beacon 2401.1428
JAS-2 02 Sep 06:13:04 06:15:38 14° 84° (E) 06:18:15 435.800 - 435.900 CW/SSB, 435.910 FM
ITAMSAT 1 02 Sep 06:14:03 06:17:37 19° 310° (NW) 06:21:10 435.822 SSB
Uribyol 2 02 Sep 06:23:36 06:26:45 17° 313° (NW) 06:29:54 436.500 FM
SO-50 02 Sep 06:23:45 06:28:10 48° 330° (NNW) 06:32:44 436.795 FM
UOSAT-12 02 Sep 06:28:16 06:32:43 46° 127° (SE) 06:37:15 437.025 FM, 437.400 FM
Uosat F 02 Sep 06:34:23 06:39:25 85° 288° (WNW) 06:44:26 435.120 FM
TMSAT-1 02 Sep 06:36:23 06:40:48 28° 304° (NW) 06:45:13 436.925 FM
Saudisat 1A 02 Sep 06:43:11 06:47:38 82° 224° (SW) 06:52:03 436.775 MHz
AO-27 02 Sep 06:44:39 06:46:58 13° 317° (NW) 06:49:16 436.795 MHz FM
JAS-1B 02 Sep 07:02:08 07:07:02 20° 323° (NW) 07:11:27 435.800 - 435.900 CW/SSB
KITSAT 1 02 Sep 07:06:31 07:14:34 61° 33° (NNE) 07:22:33 435.175 FM
AO-7 02 Sep 07:16:46 07:25:02 73° 298° (WNW) 07:33:16 29.400 - 29.500 MHz
STRAND 1 02 Sep 07:27:36 07:32:42 78° 255° (WSW) 07:37:50 ?
Gurwin Techsat 1B 02 Sep 07:27:51 07:30:00 13° 318° (NW) 07:32:08 435.225 FM
Hamsat 02 Sep 07:32:28 07:36:46 54° 100° (E) 07:41:01 145.90 MHz
RS-15 02 Sep 07:37:47 07:47:03 33° 108° (ESE) 07:56:14 29.354 - 29.394 USB, Beacon 29.352 USB
JAS-2 02 Sep 07:56:32 08:01:45 72° 104° (ESE) 08:07:17 435.800 - 435.900 CW/SSB, 435.910 FM
SO-50 02 Sep 08:05:44 08:09:42 27° 354° (N) 08:13:45 436.795 FM
UOSAT-12 02 Sep 08:08:20 08:12:55 50° 329° (NNW) 08:17:34 437.025 FM, 437.400 FM
SO-67 02 Sep 08:09:07 08:11:52 21° 92° (E) 08:14:35 435.3500 MHz FM
Uosat F 02 Sep 08:14:03 08:17:36 20° 309° (NW) 08:21:08 435.120 FM
Saudisat 1A 02 Sep 08:23:41 08:26:37 18° 245° (WSW) 08:29:32 436.775 MHz
KITSAT 1 02 Sep 09:02:13 09:10:04 57° 238° (WSW) 09:17:53 435.175 FM
Hamsat 02 Sep 09:08:53 09:12:30 26° 300° (WNW) 09:16:05 145.90 MHz
STRAND 1 02 Sep 09:09:52 09:12:47 15° 275° (W) 09:15:42 ?
AO-7 02 Sep 09:10:01 09:16:43 28° 322° (NW) 09:23:23 29.400 - 29.500 MHz
SO-67 02 Sep 09:41:48 09:45:05 40° 292° (WNW) 09:48:21 435.3500 MHz FM
JAS-2 02 Sep 09:42:22 09:46:33 25° 305° (NW) 09:50:53 435.800 - 435.900 CW/SSB, 435.910 FM
RS-15 02 Sep 09:47:03 09:58:04 86° 134° (SE) 10:09:05 29.354 - 29.394 USB, Beacon 29.352 USB
SO-50 02 Sep 09:47:11 09:51:26 32° 18° (NNE) 09:55:45 436.795 FM
HO-68 02 Sep 09:48:49 09:54:53 29° 91° (E) 10:00:55 435.675 MHz FM
UOSAT-12 02 Sep 09:49:55 09:54:00 28° 352° (N) 09:58:06 437.025 FM, 437.400 FM
JAS-1B 02 Sep 10:39:45 10:42:01 11° 18° (NNE) 10:44:13 435.800 - 435.900 CW/SSB
ISS 02 Sep 10:58:32 11:00:18 14° 145° (SE) 11:02:05 145.800 FM
KITSAT 1 02 Sep 10:59:19 11:03:47 16° 261° (W) 11:08:15 435.175 FM
AO-7 02 Sep 11:02:33 11:06:57 16° 349° (NNW) 11:11:21 29.400 - 29.500 MHz
UKube-1 02 Sep 11:07:29 11:11:45 51° 101° (E) 11:15:59 145.840 MHz, 145.915 MHz
Oscar 11 02 Sep 11:10:35 11:14:46 41° 98° (E) 11:18:54 145.825 FM, Beacon 2401.500 USB
SO-50 02 Sep 11:27:51 11:32:37 80° 41° (NE) 11:37:27 436.795 FM
UOSAT-12 02 Sep 11:31:04 11:35:20 31° 16° (NNE) 11:39:35 437.025 FM, 437.400 FM
HO-68 02 Sep 11:36:12 11:43:23 81° 293° (WNW) 11:50:33 435.675 MHz FM
FUNcube-1 02 Sep 11:44:00 11:48:17 40° 97° (E) 11:52:37 145.950 - 145.970 MHz USB
RS-15 02 Sep 12:00:42 12:11:26 56° 344° (NNW) 12:22:19 29.354 - 29.394 USB, Beacon 29.352 USB
Oscar 19 02 Sep 12:04:15 12:07:16 16° 46° (NE) 12:10:18 437.125 CW, 437.150 USB
JAS-1B 02 Sep 12:23:17 12:30:02 25° 43° (NE) 12:36:04 435.800 - 435.900 CW/SSB
ISS 02 Sep 12:33:19 12:36:23 34° 165° (SSE) 12:39:27 145.800 FM
MaSat-1 02 Sep 12:35:30 12:38:03 14° 101° (E) 12:40:37 437.345 MHz
Oscar 16 02 Sep 12:38:05 12:42:15 25° 55° (NE) 12:46:26 437.025 USB, Beacon 2401.1428
ITAMSAT 1 02 Sep 12:43:10 12:46:14 16° 47° (NE) 12:49:19 435.822 SSB
UKube-1 02 Sep 12:44:06 12:47:45 27° 301° (WNW) 12:51:25 145.840 MHz, 145.915 MHz
Oscar 11 02 Sep 12:46:59 12:50:53 32° 298° (WNW) 12:54:46 145.825 FM, Beacon 2401.500 USB
Uribyol 2 02 Sep 12:51:47 12:55:17 19° 49° (NE) 12:58:47 436.500 FM
AO-7 02 Sep 12:51:57 12:56:41 17° 16° (NNE) 13:01:26 29.400 - 29.500 MHz
SO-50 02 Sep 13:08:54 13:12:48 25° 241° (WSW) 13:16:45 436.795 FM
TMSAT-1 02 Sep 13:09:18 13:11:06 12° 41° (NE) 13:12:53 436.925 FM
UOSAT-12 02 Sep 13:11:23 13:16:10 75° 39° (NE) 13:20:53 437.025 FM, 437.400 FM
AO-27 02 Sep 13:11:40 13:15:43 24° 53° (NE) 13:19:47 436.795 MHz FM
FUNcube-1 02 Sep 13:20:33 13:24:40 35° 296° (WNW) 13:28:50 145.950 - 145.970 MHz USB
HO-68 02 Sep 13:24:30 13:30:16 27° 315° (NW) 13:36:02 435.675 MHz FM
Oscar 19 02 Sep 13:40:36 13:45:42 62° 68° (ENE) 13:50:51 437.125 CW, 437.150 USB
AO-Echo 02 Sep 13:45:15 13:49:44 37° 62° (ENE) 13:54:08 ?
Gurwin Techsat 1B 02 Sep 13:56:07 14:00:27 26° 55° (NE) 14:04:48 435.225 FM
MaSat-1 02 Sep 14:09:07 14:14:09 64° 121° (ESE) 14:19:14 437.345 MHz
ISS 02 Sep 14:09:35 14:12:47 44° 185° (S) 14:15:58 145.800 FM
JAS-1B 02 Sep 14:10:12 14:19:27 66° 65° (ENE) 14:27:25 435.800 - 435.900 CW/SSB
Oscar 16 02 Sep 14:16:00 14:21:10 75° 255° (WSW) 14:26:25 437.025 USB, Beacon 2401.1428
ITAMSAT 1 02 Sep 14:19:45 14:24:51 63° 68° (ENE) 14:29:59 435.822 SSB
